| time (UTC) | temp F | wind direction | speed MPH | gust MPH | rain 1hr in | rain 24hr in | rain mn in | humidity % | barometer mb |
| 20260505125034 | 67 | 151 | 0.0 | 6.0 | 0.00 | 0.00 | 0.00 | 94 | 1009.2 |
| 20260505124546 | 67 | 180 | 3.0 | 6.0 | 0.00 | 0.00 | 0.00 | 94 | 1009.2 |
| 20260505124037 | 67 | 178 | 2.0 | 5.0 | 0.00 | 0.00 | 0.00 | 94 | 1009.1 |
| 20260505123538 | 67 | 176 | 1.0 | 4.0 | 0.00 | 0.00 | 0.00 | 94 | 1008.9 |
| 20260505123053 | 67 | 165 | 0.0 | 4.0 | 0.00 | 0.00 | 0.00 | 94 | 1009.0 |
| 20260505122533 | 67 | 0 | 1.0 | 4.0 | 0.00 | 0.00 | 0.00 | 93 | 1008.8 |
| 20260505122033 | 67 | 0 | 0.0 | 3.0 | 0.00 | 0.00 | 0.00 | 93 | 1008.8 |
| 20260505121544 | 67 | 0 | 0.0 | 3.0 | 0.00 | 0.00 | 0.00 | 93 | 1008.7 |
| 20260505121035 | 67 | 0 | 0.0 | 3.0 | 0.00 | 0.00 | 0.00 | 93 | 1008.6 |
| 20260505120534 | 67 | 166 | 1.0 | 3.0 | 0.00 | 0.00 | 0.00 | 93 | 1008.6 |
| 20260505120106 | 66 | 0 | 1.0 | 3.0 | 0.00 | 0.00 | 0.00 | 93 | 1008.4 |
| 20260505115534 | 66 | 166 | 0.0 | 2.0 | 0.00 | 0.00 | 0.00 | 93 | 1008.4 |
| 20260505115031 | 66 | 166 | 0.0 | 3.0 | 0.00 | 0.00 | 0.00 | 93 | 1008.3 |
| 20260505114548 | 66 | 196 | 0.0 | 3.0 | 0.00 | 0.00 | 0.00 | 93 | 1008.3 |
| 20260505114037 | 66 | 130 | 0.0 | 2.0 | 0.00 | 0.00 | 0.00 | 93 | 1008.3 |
| 20260505113537 | 66 | 130 | 0.0 | 2.0 | 0.00 | 0.00 | 0.00 | 93 | 1008.3 |
| 20260505113049 | 66 | 0 | 0.0 | 3.0 | 0.00 | 0.00 | 0.00 | 93 | 1008.3 |
| 20260505112534 | 66 | 130 | 0.0 | 3.0 | 0.00 | 0.00 | 0.00 | 93 | 1008.2 |
| 20260505112031 | 66 | 130 | 0.0 | 3.0 | 0.00 | 0.00 | 0.00 | 93 | 1008.2 |
| 20260505111547 | 66 | 130 | 1.0 | 3.0 | 0.00 | 0.00 | 0.00 | 93 | 1008.2 |
| 20260505111036 | 66 | 0 | 0.0 | 2.0 | 0.00 | 0.00 | 0.00 | 93 | 1008.2 |
| 20260505110534 | 66 | 130 | 0.0 | 2.0 | 0.00 | 0.00 | 0.00 | 93 | 1008.2 |
| 20260505110106 | 66 | 130 | 0.0 | 2.0 | 0.00 | 0.00 | 0.00 | 93 | 1008.2 |
| 20260505102036 | 66 | 156 | 2.0 | 4.0 | 0.00 | 0.00 | 0.00 | 92 | 1008.1 |
| 20260505101548 | 65 | 156 | 1.0 | 3.0 | 0.00 | 0.00 | 0.00 | 92 | 1008.1 |
| 20260505101035 | 66 | 156 | 1.0 | 3.0 | 0.00 | 0.00 | 0.00 | 92 | 1008.2 |
| 20260505100534 | 66 | 156 | 0.0 | 2.0 | 0.00 | 0.00 | 0.00 | 92 | 1008.3 |
| 20260505100047 | 66 | 0 | 0.0 | 1.0 | 0.00 | 0.00 | 0.00 | 92 | 1008.3 |
| 20260505095534 | 66 | 0 | 0.0 | 1.0 | 0.00 | 0.00 | 0.00 | 92 | 1008.4 |
| 20260505095035 | 66 | 0 | 0.0 | 1.0 | 0.00 | 0.00 | 0.00 | 92 | 1008.3 |
| 20260505094548 | 66 | 0 | 0.0 | 2.0 | 0.00 | 0.00 | 0.00 | 92 | 1008.4 |
| 20260505094031 | 66 | 0 | 0.0 | 2.0 | 0.00 | 0.00 | 0.00 | 92 | 1008.5 |
| 20260505093531 | 66 | 0 | 0.0 | 3.0 | 0.00 | 0.00 | 0.00 | 92 | 1008.6 |
| 20260505093049 | 66 | 0 | 1.0 | 3.0 | 0.00 | 0.00 | 0.00 | 92 | 1008.6 |
| 20260505092534 | 66 | 156 | 1.0 | 5.0 | 0.00 | 0.00 | 0.00 | 92 | 1008.5 |
| 20260505092035 | 66 | 0 | 1.0 | 5.0 | 0.00 | 0.00 | 0.00 | 92 | 1008.6 |
| 20260505091552 | 66 | 130 | 2.0 | 5.0 | 0.00 | 0.00 | 0.00 | 92 | 1008.5 |
| 20260505091036 | 66 | 141 | 1.0 | 5.0 | 0.00 | 0.00 | 0.00 | 92 | 1008.5 |
| 20260505090534 | 66 | 146 | 2.0 | 5.0 | 0.00 | 0.00 | 0.00 | 92 | 1008.6 |
| 20260505090047 | 66 | 123 | 1.0 | 4.0 | 0.00 | 0.00 | 0.00 | 92 | 1008.6 |
| 20260505085534 | 66 | 123 | 0.0 | 5.0 | 0.00 | 0.00 | 0.00 | 92 | 1008.6 |
| 20260505085035 | 66 | 123 | 1.0 | 6.0 | 0.00 | 0.00 | 0.00 | 92 | 1008.6 |
| 20260505084553 | 66 | 139 | 2.0 | 7.0 | 0.00 | 0.00 | 0.00 | 92 | 1008.6 |
| 20260505084034 | 67 | 150 | 3.0 | 7.0 | 0.00 | 0.00 | 0.00 | 92 | 1008.6 |
| 20260505083538 | 67 | 129 | 3.0 | 7.0 | 0.00 | 0.00 | 0.00 | 92 | 1008.6 |
| 20260505083101 | 66 | 143 | 2.0 | 6.0 | 0.00 | 0.00 | 0.00 | 91 | 1008.6 |
| 20260505082533 | 67 | 143 | 3.0 | 6.0 | 0.00 | 0.00 | 0.00 | 91 | 1008.7 |
| 20260505082034 | 67 | 144 | 2.0 | 5.0 | 0.00 | 0.00 | 0.00 | 91 | 1008.9 |
| 20260505081547 | 67 | 146 | 2.0 | 6.0 | 0.00 | 0.00 | 0.00 | 91 | 1009.0 |
| 20260505081035 | 67 | 143 | 2.0 | 6.0 | 0.00 | 0.00 | 0.00 | 91 | 1009.1 |
| 20260505080533 | 67 | 143 | 2.0 | 5.0 | 0.00 | 0.00 | 0.00 | 91 | 1009.1 |
| 20260505080047 | 67 | 149 | 1.0 | 5.0 | 0.00 | 0.00 | 0.00 | 91 | 1009.2 |
| 20260505075535 | 67 | 131 | 2.0 | 7.0 | 0.00 | 0.00 | 0.00 | 91 | 1009.2 |
| 20260505075033 | 67 | 134 | 2.0 | 7.0 | 0.00 | 0.00 | 0.00 | 91 | 1009.2 |
| 20260505074543 | 67 | 131 | 4.0 | 8.0 | 0.00 | 0.00 | 0.00 | 91 | 1009.3 |
| 20260505074034 | 67 | 149 | 3.0 | 8.0 | 0.00 | 0.00 | 0.00 | 91 | 1009.3 |
| 20260505073534 | 67 | 141 | 3.0 | 6.0 | 0.00 | 0.00 | 0.00 | 91 | 1009.4 |
| 20260505073057 | 67 | 149 | 3.0 | 6.0 | 0.00 | 0.00 | 0.00 | 91 | 1009.4 |
| 20260505072534 | 67 | 126 | 2.0 | 6.0 | 0.00 | 0.00 | 0.00 | 91 | 1009.4 |
| 20260505072127 | 67 | 149 | 2.0 | 6.0 | 0.00 | 0.00 | 0.00 | 90 | 1009.6 |
| 20260505071544 | 67 | 112 | 3.0 | 10.0 | 0.00 | 0.00 | 0.00 | 90 | 1009.6 |
| 20260505071034 | 68 | 162 | 3.0 | 10.0 | 0.00 | 0.00 | 0.00 | 90 | 1009.7 |
| 20260505070534 | 68 | 143 | 2.0 | 8.0 | 0.00 | 0.00 | 0.00 | 90 | 1009.8 |
| 20260505070047 | 68 | 151 | 3.0 | 8.0 | 0.00 | 0.00 | 0.00 | 90 | 1009.9 |
| 20260505065534 | 68 | 136 | 3.0 | 7.0 | 0.00 | 0.00 | 0.00 | 90 | 1009.9 |
| 20260505065034 | 68 | 135 | 4.0 | 9.0 | 0.00 | 0.00 | 0.00 | 90 | 1009.9 |
| 20260505064615 | 68 | 133 | 4.0 | 9.0 | 0.00 | 0.00 | 0.00 | 90 | 1010.0 |
| 20260505064033 | 68 | 158 | 6.0 | 9.0 | 0.00 | 0.00 | 0.00 | 90 | 1010.0 |
| 20260505063533 | 68 | 141 | 5.0 | 11.0 | 0.00 | 0.00 | 0.00 | 89 | 1010.2 |
| 20260505063045 | 68 | 145 | 5.0 | 11.0 | 0.00 | 0.00 | 0.00 | 89 | 1010.1 |
| 20260505062533 | 68 | 147 | 4.0 | 9.0 | 0.00 | 0.00 | 0.00 | 89 | 1010.2 |
| 20260505062033 | 68 | 120 | 3.0 | 7.0 | 0.00 | 0.00 | 0.00 | 89 | 1010.3 |
| 20260505061547 | 68 | 134 | 4.0 | 7.0 | 0.00 | 0.00 | 0.00 | 88 | 1010.3 |
| 20260505061036 | 68 | 161 | 4.0 | 9.0 | 0.00 | 0.00 | 0.00 | 88 | 1010.3 |
| 20260505060534 | 68 | 142 | 4.0 | 9.0 | 0.00 | 0.00 | 0.00 | 88 | 1010.3 |
| 20260505060052 | 68 | 177 | 5.0 | 9.0 | 0.00 | 0.00 | 0.00 | 88 | 1010.3 |
| 20260505055538 | 68 | 134 | 4.0 | 6.0 | 0.00 | 0.00 | 0.00 | 87 | 1010.4 |
| 20260505055033 | 69 | 150 | 3.0 | 7.0 | 0.00 | 0.00 | 0.00 | 87 | 1010.4 |
| 20260505054553 | 69 | 144 | 3.0 | 7.0 | 0.00 | 0.00 | 0.00 | 87 | 1010.5 |
| 20260505054034 | 69 | 126 | 2.0 | 5.0 | 0.00 | 0.00 | 0.00 | 87 | 1010.5 |
| 20260505053534 | 69 | 141 | 2.0 | 6.0 | 0.00 | 0.00 | 0.00 | 87 | 1010.6 |
| 20260505053048 | 69 | 124 | 3.0 | 7.0 | 0.00 | 0.00 | 0.00 | 87 | 1010.6 |
| 20260505052533 | 69 | 137 | 3.0 | 8.0 | 0.00 | 0.00 | 0.00 | 86 | 1010.6 |
| 20260505052034 | 69 | 122 | 4.0 | 8.0 | 0.00 | 0.00 | 0.00 | 86 | 1010.5 |
| 20260505051544 | 69 | 136 | 4.0 | 10.0 | 0.00 | 0.00 | 0.00 | 86 | 1010.6 |
| 20260505051035 | 70 | 157 | 4.0 | 10.0 | 0.00 | 0.00 | 0.00 | 86 | 1010.6 |
| 20260505050533 | 70 | 151 | 6.0 | 9.0 | 0.00 | 0.00 | 0.00 | 86 | 1010.4 |
| 20260505041545 | 70 | 139 | 3.0 | 7.0 | 0.00 | 0.00 | 0.00 | 84 | 1010.4 |
| 20260505041034 | 70 | 151 | 3.0 | 8.0 | 0.00 | 0.00 | 0.00 | 84 | 1010.3 |
| 20260505040536 | 70 | 169 | 4.0 | 8.0 | 0.00 | 0.00 | 0.00 | 83 | 1010.3 |
| 20260505040056 | 70 | 157 | 4.0 | 8.0 | 0.00 | 0.00 | 0.00 | 83 | 1010.2 |
| 20260505035533 | 70 | 155 | 5.0 | 9.0 | 0.00 | 0.00 | 0.00 | 83 | 1010.4 |
| 20260505035034 | 70 | 147 | 4.0 | 9.0 | 0.00 | 0.00 | 0.00 | 84 | 1010.3 |
| 20260505034607 | 70 | 153 | 3.0 | 8.0 | 0.00 | 0.00 | 0.00 | 84 | 1010.3 |
| 20260505034033 | 70 | 155 | 3.0 | 7.0 | 0.00 | 0.00 | 0.00 | 84 | 1010.3 |
| 20260505033536 | 69 | 152 | 4.0 | 7.0 | 0.00 | 0.00 | 0.00 | 84 | 1010.2 |
| 20260505033043 | 69 | 168 | 3.0 | 6.0 | 0.00 | 0.00 | 0.00 | 83 | 1010.3 |
| 20260505032532 | 69 | 170 | 3.0 | 6.0 | 0.00 | 0.00 | 0.00 | 83 | 1010.2 |
| 20260505032033 | 69 | 175 | 2.0 | 6.0 | 0.00 | 0.00 | 0.00 | 83 | 1010.3 |
| 20260505031549 | 69 | 153 | 2.0 | 6.0 | 0.00 | 0.00 | 0.00 | 82 | 1010.2 |
| 20260505031033 | 69 | 158 | 2.0 | 5.0 | 0.00 | 0.00 | 0.00 | 82 | 1010.1 |
| 20260505030537 | 69 | 155 | 1.0 | 5.0 | 0.00 | 0.00 | 0.00 | 80 | 1010.1 |
| 20260505030054 | 69 | 165 | 1.0 | 3.0 | 0.00 | 0.00 | 0.00 | 79 | 1010.1 |
| 20260505025535 | 69 | 194 | 1.0 | 3.0 | 0.00 | 0.00 | 0.00 | 79 | 1010.1 |
| 20260505025034 | 70 | 194 | 1.0 | 3.0 | 0.00 | 0.00 | 0.00 | 78 | 1010.2 |
| 20260505024549 | 70 | 194 | 0.0 | 3.0 | 0.00 | 0.00 | 0.00 | 78 | 1010.1 |
| 20260505024034 | 70 | 194 | 2.0 | 3.0 | 0.00 | 0.00 | 0.00 | 77 | 1010.2 |
| 20260505023533 | 71 | 194 | 1.0 | 4.0 | 0.00 | 0.00 | 0.00 | 77 | 1010.1 |
| 20260505023048 | 71 | 194 | 2.0 | 4.0 | 0.00 | 0.00 | 0.00 | 76 | 1010.1 |
| 20260505022534 | 72 | 194 | 2.0 | 4.0 | 0.00 | 0.00 | 0.00 | 75 | 1010.1 |
| 20260505022032 | 72 | 194 | 2.0 | 4.0 | 0.00 | 0.00 | 0.00 | 74 | 1009.9 |
| 20260505021550 | 73 | 194 | 2.0 | 3.0 | 0.00 | 0.00 | 0.00 | 74 | 1009.9 |
| 20260505021034 | 73 | 194 | 2.0 | 4.0 | 0.00 | 0.00 | 0.00 | 73 | 1010.0 |
| 20260505020536 | 74 | 194 | 2.0 | 4.0 | 0.00 | 0.00 | 0.00 | 72 | 1010.0 |
| 20260505015534 | 75 | 194 | 2.0 | 3.0 | 0.00 | 0.00 | 0.00 | 71 | 1009.8 |
| 20260505015033 | 75 | 194 | 2.0 | 3.0 | 0.00 | 0.00 | 0.00 | 70 | 1009.7 |
| 20260505014549 | 75 | 194 | 1.0 | 3.0 | 0.00 | 0.00 | 0.00 | 70 | 1009.8 |
| 20260505014036 | 76 | 194 | 1.0 | 4.0 | 0.00 | 0.00 | 0.00 | 69 | 1009.8 |
| 20260505013533 | 76 | 194 | 1.0 | 5.0 | 0.00 | 0.00 | 0.00 | 68 | 1009.8 |
| 20260505013047 | 76 | 194 | 2.0 | 5.0 | 0.00 | 0.00 | 0.00 | 68 | 1009.7 |
| 20260505012533 | 76 | 194 | 2.0 | 6.0 | 0.00 | 0.00 | 0.00 | 68 | 1009.7 |
| 20260505012038 | 77 | 189 | 2.0 | 7.0 | 0.00 | 0.00 | 0.00 | 67 | 1009.7 |
| 20260505011548 | 77 | 195 | 3.0 | 8.0 | 0.00 | 0.00 | 0.00 | 67 | 1009.9 |
| 20260505011036 | 77 | 174 | 3.0 | 8.0 | 0.00 | 0.00 | 0.00 | 67 | 1009.8 |
| 20260505010535 | 77 | 189 | 4.0 | 8.0 | 0.00 | 0.00 | 0.00 | 67 | 1009.8 |
| 20260505010108 | 77 | 178 | 5.0 | 8.0 | 0.00 | 0.00 | 0.00 | 67 | 1009.9 |
| 20260505005533 | 77 | 212 | 3.0 | 9.0 | 0.00 | 0.00 | 0.00 | 66 | 1009.9 |
| 20260505005033 | 78 | 179 | 3.0 | 12.0 | 0.00 | 0.00 | 0.00 | 66 | 1009.8 |
| 20260505004622 | 78 | 142 | 5.0 | 12.0 | 0.00 | 0.00 | 0.00 | 66 | 1009.7 |
| 20260505004036 | 78 | 156 | 6.0 | 12.0 | 0.00 | 0.00 | 0.00 | 66 | 1009.8 |
| 20260505003535 | 78 | 170 | 6.0 | 13.0 | 0.00 | 0.00 | 0.00 | 66 | 1009.7 |
| 20260505003059 | 78 | 174 | 6.0 | 13.0 | 0.00 | 0.00 | 0.00 | 66 | 1009.6 |
| 20260505002536 | 78 | 166 | 7.0 | 13.0 | 0.00 | 0.00 | 0.00 | 66 | 1009.5 |
| 20260505002034 | 78 | 164 | 5.0 | 12.0 | 0.00 | 0.00 | 0.00 | 65 | 1009.6 |
| 20260505001551 | 79 | 180 | 4.0 | 12.0 | 0.00 | 0.00 | 0.00 | 65 | 1009.6 |
| 20260505001035 | 79 | 173 | 6.0 | 13.0 | 0.00 | 0.00 | 0.00 | 64 | 1009.6 |
| 20260505000533 | 79 | 162 | 6.0 | 13.0 | 0.00 | 0.00 | 0.00 | 64 | 1009.7 |
| 20260505000045 | 79 | 201 | 6.0 | 13.0 | 0.00 | 0.00 | 0.00 | 64 | 1009.6 |
| 20260504235535 | 79 | 149 | 6.0 | 16.0 | 0.00 | 0.00 | 0.00 | 64 | 1009.7 |
| 20260504235033 | 79 | 216 | 6.0 | 16.0 | 0.00 | 0.00 | 0.00 | 63 | 1009.8 |
| 20260504234543 | 80 | 149 | 7.0 | 18.0 | 0.00 | 0.00 | 0.00 | 64 | 1009.8 |
| 20260504234035 | 80 | 155 | 7.0 | 18.0 | 0.00 | 0.00 | 0.00 | 64 | 1009.8 |
| 20260504233534 | 80 | 154 | 8.0 | 17.0 | 0.00 | 0.00 | 0.00 | 62 | 1009.9 |
| 20260504233050 | 81 | 166 | 8.0 | 17.0 | 0.00 | 0.00 | 0.00 | 63 | 1009.9 |
| 20260504232534 | 81 | 189 | 6.0 | 15.0 | 0.00 | 0.00 | 0.00 | 64 | 1010.0 |
| 20260504232033 | 81 | 153 | 7.0 | 16.0 | 0.00 | 0.00 | 0.00 | 63 | 1009.9 |
| 20260504231618 | 80 | 130 | 7.0 | 16.0 | 0.00 | 0.00 | 0.00 | 63 | 1009.9 |
| 20260504231033 | 81 | 151 | 6.0 | 15.0 | 0.00 | 0.00 | 0.00 | 63 | 1009.9 |
| 20260504230534 | 80 | 143 | 8.0 | 15.0 | 0.00 | 0.00 | 0.00 | 63 | 1010.0 |
| 20260504230047 | 80 | 118 | 6.0 | 14.0 | 0.00 | 0.00 | 0.00 | 63 | 1010.1 |
| 20260504225534 | 80 | 203 | 8.0 | 19.0 | 0.00 | 0.00 | 0.00 | 63 | 1010.2 |
| 20260504225033 | 80 | 187 | 7.0 | 19.0 | 0.00 | 0.00 | 0.00 | 61 | 1010.2 |
| 20260504224546 | 80 | 172 | 9.0 | 19.0 | 0.00 | 0.00 | 0.00 | 62 | 1010.3 |
| 20260504224037 | 80 | 166 | 4.0 | 15.0 | 0.00 | 0.00 | 0.00 | 65 | 1010.5 |
| 20260504223533 | 80 | 179 | 8.0 | 16.0 | 0.00 | 0.00 | 0.00 | 61 | 1010.6 |
| 20260504223051 | 80 | 164 | 7.0 | 16.0 | 0.00 | 0.00 | 0.00 | 63 | 1010.5 |
| 20260504222534 | 80 | 170 | 5.0 | 12.0 | 0.00 | 0.00 | 0.00 | 65 | 1010.8 |
| 20260504222037 | 79 | 180 | 6.0 | 16.0 | 0.00 | 0.00 | 0.00 | 64 | 1010.8 |
| 20260504221627 | 79 | 173 | 6.0 | 17.0 | 0.00 | 0.00 | 0.00 | 63 | 1010.7 |
| 20260504221048 | 80 | 192 | 9.0 | 19.0 | 0.00 | 0.00 | 0.00 | 63 | 1010.8 |
| 20260504220534 | 80 | 128 | 8.0 | 19.0 | 0.00 | 0.00 | 0.00 | 63 | 1010.7 |
| 20260504220047 | 80 | 170 | 9.0 | 18.0 | 0.00 | 0.00 | 0.00 | 63 | 1010.8 |
| 20260504215536 | 80 | 160 | 10.0 | 19.0 | 0.00 | 0.00 | 0.00 | 62 | 1010.8 |
| 20260504215036 | 81 | 180 | 8.0 | 19.0 | 0.00 | 0.00 | 0.00 | 62 | 1010.8 |
| 20260504214546 | 80 | 169 | 6.0 | 18.0 | 0.00 | 0.00 | 0.00 | 64 | 1010.8 |
| 20260504214033 | 80 | 193 | 7.0 | 18.0 | 0.00 | 0.00 | 0.00 | 61 | 1010.9 |
| 20260504213533 | 80 | 147 | 9.0 | 18.0 | 0.00 | 0.00 | 0.00 | 63 | 1011.0 |
| 20260504213049 | 79 | 205 | 9.0 | 17.0 | 0.00 | 0.00 | 0.00 | 62 | 1011.1 |
| 20260504212533 | 79 | 181 | 8.0 | 16.0 | 0.00 | 0.00 | 0.00 | 64 | 1011.3 |
| 20260504212037 | 80 | 218 | 7.0 | 13.0 | 0.00 | 0.00 | 0.00 | 65 | 1011.3 |
| 20260504211550 | 80 | 212 | 7.0 | 13.0 | 0.00 | 0.00 | 0.00 | 65 | 1011.4 |
| 20260504211034 | 79 | 173 | 6.0 | 17.0 | 0.00 | 0.00 | 0.00 | 64 | 1011.5 |
| 20260504210534 | 78 | 169 | 9.0 | 18.0 | 0.00 | 0.00 | 0.00 | 67 | 1011.8 |
| 20260504210051 | 79 | 139 | 8.0 | 18.0 | 0.00 | 0.00 | 0.00 | 65 | 1011.9 |
| 20260504205533 | 80 | 161 | 7.0 | 17.0 | 0.00 | 0.00 | 0.00 | 64 | 1011.8 |
| 20260504205034 | 79 | 183 | 5.0 | 17.0 | 0.00 | 0.00 | 0.00 | 66 | 1011.9 |
| 20260504204547 | 78 | 187 | 8.0 | 17.0 | 0.00 | 0.00 | 0.00 | 66 | 1012.1 |
| 20260504204033 | 78 | 153 | 6.0 | 13.0 | 0.00 | 0.00 | 0.00 | 68 | 1012.2 |
| 20260504203533 | 78 | 187 | 5.0 | 16.0 | 0.00 | 0.00 | 0.00 | 67 | 1012.3 |
| 20260504203046 | 78 | 184 | 6.0 | 16.0 | 0.00 | 0.00 | 0.00 | 67 | 1012.2 |
| 20260504202533 | 77 | 212 | 8.0 | 16.0 | 0.00 | 0.00 | 0.00 | 67 | 1012.4 |
| 20260504202034 | 77 | 162 | 7.0 | 14.0 | 0.00 | 0.00 | 0.00 | 67 | 1012.5 |
| 20260504201553 | 78 | 168 | 6.0 | 15.0 | 0.00 | 0.00 | 0.00 | 67 | 1012.5 |
| 20260504201035 | 77 | 165 | 8.0 | 15.0 | 0.00 | 0.00 | 0.00 | 66 | 1012.6 |
| 20260504200534 | 77 | 148 | 7.0 | 14.0 | 0.00 | 0.00 | 0.00 | 67 | 1012.6 |
| 20260504200049 | 77 | 191 | 6.0 | 18.0 | 0.00 | 0.00 | 0.00 | 68 | 1012.7 |
| 20260504195534 | 77 | 228 | 6.0 | 18.0 | 0.00 | 0.00 | 0.00 | 66 | 1012.6 |
| 20260504195033 | 78 | 164 | 9.0 | 18.0 | 0.00 | 0.00 | 0.00 | 66 | 1012.7 |
| 20260504194553 | 77 | 209 | 9.0 | 16.0 | 0.00 | 0.00 | 0.00 | 66 | 1012.9 |
| 20260504194034 | 78 | 208 | 7.0 | 16.0 | 0.00 | 0.00 | 0.00 | 67 | 1012.9 |
| 20260504193536 | 77 | 150 | 8.0 | 16.0 | 0.00 | 0.00 | 0.00 | 66 | 1012.9 |
| 20260504193049 | 77 | 166 | 5.0 | 14.0 | 0.00 | 0.00 | 0.00 | 68 | 1013.2 |
| 20260504192533 | 77 | 176 | 6.0 | 14.0 | 0.00 | 0.00 | 0.00 | 69 | 1013.2 |
| 20260504192034 | 77 | 201 | 6.0 | 14.0 | 0.00 | 0.00 | 0.00 | 67 | 1013.1 |
| 20260504191609 | 77 | 226 | 7.0 | 14.0 | 0.00 | 0.00 | 0.00 | 68 | 1013.2 |
| 20260504191033 | 77 | 172 | 5.0 | 12.0 | 0.00 | 0.00 | 0.00 | 68 | 1013.4 |
| 20260504190533 | 77 | 199 | 5.0 | 16.0 | 0.00 | 0.00 | 0.00 | 70 | 1013.2 |
| 20260504190048 | 76 | 220 | 6.0 | 16.0 | 0.00 | 0.00 | 0.00 | 70 | 1013.4 |
| 20260504185533 | 76 | 162 | 6.0 | 14.0 | 0.00 | 0.00 | 0.00 | 69 | 1013.3 |
| 20260504185035 | 76 | 176 | 8.0 | 14.0 | 0.00 | 0.00 | 0.00 | 69 | 1013.4 |
| 20260504184556 | 77 | 201 | 6.0 | 13.0 | 0.00 | 0.00 | 0.00 | 68 | 1013.3 |
| 20260504184034 | 77 | 193 | 6.0 | 14.0 | 0.00 | 0.00 | 0.00 | 69 | 1013.4 |
| 20260504183534 | 76 | 182 | 5.0 | 15.0 | 0.00 | 0.00 | 0.00 | 68 | 1013.5 |
| 20260504183047 | 76 | 180 | 10.0 | 15.0 | 0.00 | 0.00 | 0.00 | 68 | 1013.5 |
| 20260504182533 | 77 | 197 | 8.0 | 17.0 | 0.00 | 0.00 | 0.00 | 68 | 1013.8 |
| 20260504182033 | 77 | 193 | 8.0 | 17.0 | 0.00 | 0.00 | 0.00 | 67 | 1013.8 |
| 20260504181547 | 78 | 171 | 6.0 | 17.0 | 0.00 | 0.00 | 0.00 | 67 | 1013.7 |
| 20260504181033 | 79 | 169 | 7.0 | 16.0 | 0.00 | 0.00 | 0.00 | 66 | 1013.7 |
| 20260504180534 | 78 | 201 | 9.0 | 16.0 | 0.00 | 0.00 | 0.00 | 67 | 1013.8 |
| 20260504180047 | 78 | 236 | 7.0 | 18.0 | 0.00 | 0.00 | 0.00 | 67 | 1013.9 |
| 20260504175533 | 77 | 154 | 10.0 | 19.0 | 0.00 | 0.00 | 0.00 | 69 | 1013.9 |
| 20260504175033 | 77 | 212 | 10.0 | 22.0 | 0.00 | 0.00 | 0.00 | 67 | 1013.9 |
| 20260504174549 | 77 | 194 | 9.0 | 22.0 | 0.00 | 0.00 | 0.00 | 69 | 1013.9 |
| 20260504174034 | 76 | 213 | 11.0 | 20.0 | 0.00 | 0.00 | 0.00 | 69 | 1013.9 |
| 20260504173534 | 75 | 149 | 7.0 | 16.0 | 0.00 | 0.00 | 0.00 | 72 | 1014.1 |
| 20260504173049 | 75 | 239 | 7.0 | 16.0 | 0.00 | 0.00 | 0.00 | 72 | 1014.3 |
| 20260504172534 | 76 | 186 | 8.0 | 19.0 | 0.00 | 0.00 | 0.00 | 71 | 1014.4 |
| 20260504172033 | 74 | 178 | 10.0 | 19.0 | 0.00 | 0.00 | 0.00 | 72 | 1014.6 |
| 20260504171548 | 74 | 197 | 10.0 | 18.0 | 0.00 | 0.00 | 0.00 | 72 | 1014.7 |
| 20260504171034 | 74 | 203 | 7.0 | 15.0 | 0.00 | 0.00 | 0.00 | 73 | 1014.6 |
| 20260504170534 | 75 | 195 | 8.0 | 15.0 | 0.00 | 0.00 | 0.00 | 71 | 1014.7 |
| 20260504151034 | 70 | 187 | 9.0 | 18.0 | 0.00 | 0.00 | 0.00 | 81 | 1015.4 |
| 20260504150533 | 69 | 174 | 8.0 | 17.0 | 0.00 | 0.00 | 0.00 | 81 | 1015.5 |
| 20260504141036 | 66 | 186 | 7.0 | 13.0 | 0.00 | 0.00 | 0.00 | 85 | 1015.4 |
| 20260504140532 | 65 | 173 | 5.0 | 13.0 | 0.00 | 0.00 | 0.00 | 87 | 1015.3 |
| 20260504130533 | 59 | 0 | 0.0 | 2.0 | 0.00 | 0.00 | 0.00 | 90 | 1015.3 |